Wilkerson Pass, CO

8:11 PM MST on January 22, 2018 (GMT -0700)
Wilkerson Pass

Weather History for K4BM - January, 2014

Change the Weather History Date:

Sunday, January 5, 2014

  Actual Average (KAFF) Record (KAFF)
Temperature  
Mean Temperature -2 °F -  
Max Temperature 0 °F 42 °F 65 °F (2012)
Min Temperature -5 °F 20 °F -7 °F (2014)
Degree Days  
Heating Degree Days 68    
Moisture  
Dew Point -11 °F    
Average Humidity 74    
Maximum Humidity 85    
Minimum Humidity 65    
Precipitation  
Precipitation 0.00 in - - ()
Sea Level Pressure  
Sea Level Pressure 29.84 in    
Wind  
Wind Speed 9 mph (WNW)    
Max Wind Speed 14 mph    
Max Gust Speed 30 mph    
Visibility 8 miles    
Events Snow    
Averages and records for this station are not official NWS values.
T = Trace of Precipitation, MM = Missing Value Source: NWS Daily Summary

Daily Weather History Graph

Daily Weather History Graph

Search for Another Location

Airport or City:

Trip Planner

Search our weather history database for the weather conditions in past years. The results will help you decide how hot, cold, wet, or windy it might be!

Date:

Astronomy

Jan. 05, 2014 Rise Set
Actual Time 7:21 AM MST 4:53 PM MST
Civil Twilight 6:51 AM MST 5:23 PM MST
Nautical Twilight 6:18 AM MST 5:56 PM MST
Astronomical Twilight 5:45 AM MST 6:29 PM MST
Moon 10:06 AM MST (1/5) 10:21 PM MST (1/5)
Length of Visible Light 10h 32m
Length of Day
9h 32m
Waxing Crescent, 25% of the Moon is Illuminated
Jan 5
Waxing Crescent
Jan 7
First Quarter
Jan 15
Full
Jan 23
Last Quarter
Jan 30
New

Hourly Weather History & Observations

Time (MST) Temp. Windchill Dew Point Humidity Pressure Visibility Wind Dir Wind Speed Gust Speed Precip Events Conditions
12:00 AM -4.0 °F -22.1 °F -9.4 °F 78% 29.76 in 10.0 mi NW 11.5 mph 19.6 mph N/A   Clear
12:19 AM -4.0 °F -21.2 °F -7.6 °F 85% 29.76 in 10.0 mi NW 10.4 mph - N/A   Clear
12:40 AM -4.0 °F -17.8 °F -9.4 °F 78% 29.76 in 10.0 mi WNW 6.9 mph - N/A   Clear
1:00 AM -4.0 °F -16.3 °F -9.4 °F 78% 29.77 in 10.0 mi WNW 5.8 mph - N/A   Clear
1:19 AM -5.8 °F -18.4 °F -9.4 °F 84% 29.77 in 10.0 mi West 5.8 mph - N/A   Scattered Clouds
1:40 AM -4.0 °F -16.3 °F -9.4 °F 78% 29.77 in 10.0 mi West 5.8 mph - N/A   Clear
2:00 AM -4.0 °F -14.6 °F -9.4 °F 78% 29.76 in 10.0 mi WSW 4.6 mph - N/A   Clear
2:20 AM -5.8 °F -14.5 °F -9.4 °F 84% 29.77 in 10.0 mi WSW 3.5 mph - N/A   Clear
2:40 AM -5.8 °F -21.2 °F -9.4 °F 84% 29.76 in 10.0 mi West 8.1 mph - N/A   Mostly Cloudy
3:00 AM -5.8 °F -21.2 °F -9.4 °F 84% 29.75 in 10.0 mi West 8.1 mph - N/A   Mostly Cloudy
3:19 AM -5.8 °F -22.4 °F -9.4 °F 84% 29.75 in 10.0 mi West 9.2 mph 17.3 mph N/A   Clear
3:40 AM -5.8 °F -19.9 °F -11.2 °F 77% 29.75 in 10.0 mi West 6.9 mph 16.1 mph N/A   Clear
4:00 AM -5.8 °F -21.2 °F -11.2 °F 77% 29.75 in 10.0 mi WNW 8.1 mph 18.4 mph N/A   Clear
4:20 AM -5.8 °F -19.9 °F -11.2 °F 77% 29.76 in 10.0 mi WNW 6.9 mph 16.1 mph N/A   Clear
4:40 AM -5.8 °F -22.4 °F -11.2 °F 77% 29.76 in 10.0 mi WNW 9.2 mph 16.1 mph N/A   Clear
5:00 AM -5.8 °F -19.9 °F -11.2 °F 77% 29.77 in 10.0 mi WNW 6.9 mph - N/A   Scattered Clouds
5:20 AM -5.8 °F -16.7 °F -13.0 °F 71% 29.77 in 10.0 mi NNW 4.6 mph - N/A   Mostly Cloudy
5:40 AM -5.8 °F -18.4 °F -13.0 °F 71% 29.78 in 10.0 mi NNW 5.8 mph - N/A   Mostly Cloudy
6:00 AM -5.8 °F -21.2 °F -11.2 °F 77% 29.78 in 10.0 mi NW 8.1 mph 16.1 mph N/A   Scattered Clouds
6:20 AM -5.8 °F -22.4 °F -11.2 °F 77% 29.77 in 10.0 mi NW 9.2 mph 23.0 mph N/A   Mostly Cloudy
6:40 AM -5.8 °F -26.0 °F -11.2 °F 77% 29.77 in 10.0 mi NW 13.8 mph 19.6 mph N/A   Mostly Cloudy
7:00 AM -5.8 °F -23.4 °F -11.2 °F 77% 29.78 in 10.0 mi NW 10.4 mph 19.6 mph N/A   Mostly Cloudy
7:20 AM -5.8 °F -22.4 °F -13.0 °F 71% 29.80 in 10.0 mi NW 9.2 mph 17.3 mph N/A   Mostly Cloudy
7:40 AM -5.8 °F -19.9 °F -13.0 °F 71% 29.81 in 10.0 mi NW 6.9 mph 17.3 mph N/A   Scattered Clouds
8:00 AM -5.8 °F -21.2 °F -13.0 °F 71% 29.82 in 10.0 mi NW 8.1 mph 19.6 mph N/A   Scattered Clouds
8:19 AM -5.8 °F -21.2 °F -13.0 °F 71% 29.82 in 10.0 mi WNW 8.1 mph - N/A   Scattered Clouds
8:40 AM -4.0 °F -21.2 °F -13.0 °F 65% 29.83 in 10.0 mi NW 10.4 mph 19.6 mph N/A   Clear
9:00 AM -4.0 °F -22.1 °F -11.2 °F 71% 29.82 in 7.0 mi WNW 11.5 mph 19.6 mph N/A   Scattered Clouds
9:20 AM -4.0 °F -19.0 °F -9.4 °F 78% 29.83 in 10.0 mi WNW 8.1 mph 18.4 mph N/A   Mostly Cloudy
9:40 AM -4.0 °F -19.0 °F -9.4 °F 78% 29.83 in 10.0 mi West 8.1 mph - N/A   Overcast
10:00 AM -2.2 °F -10.4 °F -9.4 °F 71% 29.84 in 7.0 mi West 3.5 mph - N/A   Overcast
10:20 AM -0.4 °F -13.4 °F -7.6 °F 72% 29.84 in 10.0 mi West 6.9 mph - N/A   Overcast
10:40 AM -0.4 °F -14.7 °F -7.6 °F 72% 29.83 in 4.0 mi West 8.1 mph 16.1 mph N/A   Haze
10:59 AM -0.4 °F -12.0 °F -7.6 °F 72% 29.83 in 10.0 mi West 5.8 mph 17.3 mph N/A   Mostly Cloudy
11:20 AM -0.4 °F -15.7 °F -7.6 °F 72% 29.82 in 4.0 mi West 9.2 mph 21.9 mph N/A   Haze
11:40 AM -0.4 °F -14.7 °F -7.6 °F 72% 29.81 in 10.0 mi West 8.1 mph 17.3 mph N/A   Scattered Clouds
12:00 PM -0.4 °F -16.7 °F -4.0 °F 85% 29.81 in 10.0 mi West 10.4 mph 19.6 mph N/A   Scattered Clouds
12:20 PM -0.4 °F -14.7 °F -5.8 °F 78% 29.81 in 10.0 mi West 8.1 mph 19.6 mph N/A   Overcast
12:40 PM -0.4 °F -17.6 °F -5.8 °F 78% 29.82 in 7.0 mi WNW 11.5 mph 17.3 mph N/A   Overcast
1:00 PM -0.4 °F -14.7 °F -7.6 °F 72% 29.82 in 10.0 mi WNW 8.1 mph 18.4 mph N/A   Overcast
1:20 PM -0.4 °F -16.7 °F -7.6 °F 72% 29.83 in 3.0 mi NW 10.4 mph 16.1 mph N/A   Haze
1:39 PM -0.4 °F -13.4 °F -7.6 °F 72% 29.85 in 2.5 mi NW 6.9 mph 24.2 mph N/A   Haze
2:00 PM -0.4 °F -13.4 °F -9.4 °F 66% 29.85 in 7.0 mi WNW 6.9 mph 18.4 mph N/A   Overcast
2:20 PM -2.2 °F -16.8 °F -11.2 °F 66% 29.85 in 2.5 mi WNW 8.1 mph 25.3 mph N/A   Haze
2:40 PM -4.0 °F -19.0 °F -13.0 °F 65% 29.86 in 3.0 mi WNW 8.1 mph 26.5 mph N/A   Haze
3:00 PM -4.0 °F -22.1 °F -13.0 °F 65% 29.86 in 5.0 mi WNW 11.5 mph 20.7 mph N/A   Haze
3:20 PM -4.0 °F -21.2 °F -13.0 °F 65% 29.87 in 10.0 mi WNW 10.4 mph 19.6 mph N/A   Scattered Clouds
3:40 PM -4.0 °F -21.2 °F -13.0 °F 65% 29.87 in 10.0 mi WNW 10.4 mph 21.9 mph N/A   Clear
4:00 PM -4.0 °F -19.0 °F -13.0 °F 65% 29.88 in 10.0 mi WNW 8.1 mph 21.9 mph N/A   Scattered Clouds
4:20 PM -4.0 °F -20.2 °F -13.0 °F 65% 29.89 in 10.0 mi WNW 9.2 mph 24.2 mph N/A   Mostly Cloudy
4:40 PM -5.8 °F -19.9 °F -14.8 °F 65% 29.89 in 10.0 mi NW 6.9 mph 16.1 mph N/A   Mostly Cloudy
5:00 PM -5.8 °F -24.4 °F -14.8 °F 65% 29.90 in 10.0 mi NW 11.5 mph 25.3 mph N/A   Mostly Cloudy
5:20 PM -5.8 °F -22.4 °F -13.0 °F 71% 29.91 in 10.0 mi NW 9.2 mph - N/A   Mostly Cloudy
5:39 PM -5.8 °F -22.4 °F -13.0 °F 71% 29.91 in 7.0 mi WNW 9.2 mph 23.0 mph N/A   Overcast
6:00 PM -5.8 °F -21.2 °F -13.0 °F 71% 29.92 in 7.0 mi WNW 8.1 mph 24.2 mph N/A   Overcast
6:20 PM -5.8 °F -21.2 °F -13.0 °F 71% 29.93 in 4.0 mi NW 8.1 mph 19.6 mph N/A   Haze
6:40 PM -5.8 °F -22.4 °F -13.0 °F 71% 29.93 in 4.0 mi NW 9.2 mph 21.9 mph N/A   Haze
7:00 PM -5.8 °F -19.9 °F -13.0 °F 71% 29.93 in 5.0 mi NW 6.9 mph 18.4 mph N/A   Haze
7:20 PM -5.8 °F -23.4 °F -11.2 °F 77% 29.93 in 4.0 mi WNW 10.4 mph 20.7 mph N/A   Haze
7:40 PM -5.8 °F -23.4 °F -9.4 °F 84% 29.93 in 2.5 mi NW 10.4 mph 23.0 mph N/A   Haze
7:59 PM -5.8 °F -24.4 °F -11.2 °F 77% 29.93 in 3.0 mi WNW 11.5 mph 21.9 mph N/A   Haze
8:20 PM -5.8 °F -21.2 °F -9.4 °F 84% 29.93 in 2.5 mi WNW 8.1 mph 18.4 mph N/A Snow Light Snow
8:40 PM -5.8 °F -25.2 °F -11.2 °F 77% 29.92 in 4.0 mi WNW 12.7 mph 21.9 mph N/A   Haze
9:00 PM -5.8 °F -24.4 °F -11.2 °F 77% 29.92 in 5.0 mi WNW 11.5 mph 21.9 mph N/A   Haze
9:20 PM -5.8 °F -26.0 °F -13.0 °F 71% 29.91 in 7.0 mi WNW 13.8 mph 25.3 mph N/A   Overcast
9:40 PM -5.8 °F -25.2 °F -13.0 °F 71% 29.93 in 10.0 mi WNW 12.7 mph 21.9 mph N/A   Scattered Clouds
9:59 PM -5.8 °F -22.4 °F -13.0 °F 71% 29.93 in 10.0 mi WNW 9.2 mph 23.0 mph N/A   Clear
10:19 PM -5.8 °F -24.4 °F -13.0 °F 71% 29.92 in 10.0 mi WNW 11.5 mph 29.9 mph N/A   Clear
10:40 PM -5.8 °F -23.4 °F -13.0 °F 71% 29.91 in 10.0 mi WNW 10.4 mph 20.7 mph N/A   Clear
11:00 PM -5.8 °F -24.4 °F -13.0 °F 71% 29.90 in 7.0 mi WNW 11.5 mph 24.2 mph N/A   Clear
11:19 PM -5.8 °F -26.0 °F -13.0 °F 71% 29.89 in 10.0 mi WNW 13.8 mph 28.8 mph N/A   Clear
11:40 PM -5.8 °F - -13.0 °F 71% 29.88 in 7.0 mi North - - N/A   Clear